Terminal Aerodrome Forecast
Issued by NWS

Home | Current Version | Previous Version | Text Only | Print | Product List | Glossary On
Versions: 1 2 3 4 5 6 7 8 9 10 11 12 13 14 15 16 17 18 19
000
FTUS42 KTBW 270344 AAA
TAFLAL
TAF AMD
KLAL 270344Z 2704/2724 32005KT P6SM VCSH SCT020 BKN100
     FM270800 18003KT P6SM SHRA VCTS SCT020CB BKN050
     FM271200 20005KT P6SM SCT025 BKN100
     FM271600 23016G24KT P6SM SHRA VCTS BKN025CB
     FM272200 27016G24KT P6SM BKN020
      AMD NOT SKED TIL 271200=

USA.gov is the U.S. government's official web portal to all federal, state and local government web resources and services.